Volver al catálogo

STARLINK-38067

ActivoComunicacionesSSO
NORAD 69747·PAYLOAD·🇺🇸 United States

Lanzado Jul 2, 2026 desde Vandenberg Space Force Base

Loading…

Próximos Pases (próximas 24 horas)

TLE

ActualizadoSource: CelesTrak SupGP

Época: Sep 15, 2026, 04:27 UTC

1 69747C 26150J   26258.18590278 -.00054440  00000+0 -16901-2 0  2585
2 69747  97.2848  97.1732 0001785  91.0880 162.4558 15.33462830    16

Sigue STARLINK-38067 en tiempo real con AllMySat

Download on the App Store